Regional Weather Roundup
Issued by NWS

Home | Current Version | Previous Version | Graphics & Text | Print | Product List | Glossary On
Versions: 1 2 3 4 5 6 7 8 9 10 11 12 13 14 15 16 17 18 19 20 21 22 23 24 25 26 27 28 29 30 31 32 33 34 35 36 37 38 39 40 41 42 43 44 45 46 47 48 49 50
000
ASUS43 KOAX 201302
RWRNE

WEATHER ROUNDUP FOR NEBRASKA
NATIONAL WEATHER SERVICE OMAHA NE
800 AM CDT WED AUG 20 2014

NOTES: SATELLITE DATA IS BEING USED TO AUGMENT CLOUD COVER ABOVE
       12000 FEET.
       "FAIR" INDICATES FEW OR NO CLOUDS BELOW 12,000 FEET WITH NO
       SIGNIFICANT WEATHER AND/OR OBSTRUCTIONS TO VISIBILITY.

  * THESE STATIONS DO NOT REPORT WEATHER SUCH AS RAIN...SNOW OR FOG.

NEZ001>004-019>022-054>056-201400-
NEBRASKA PANHANDLE

CITY           SKY/WX    TMP DP  RH WIND       PRES   REMARKS
SCOTTSBLUFF    MOCLDY    64  60  87 CALM      29.83S
ALLIANCE       CLOUDY    64  57  78 CALM      29.81F
CHADRON        CLOUDY    72  53  51 SW5       29.78R
KIMBALL        MOCLDY    63  56  77 CALM      29.89R
SIDNEY         MOCLDY    64  57  78 NW5       29.86S
$$

NEZ057>060-069>072-079>082-201400-
SOUTHWEST NEBRASKA

CITY           SKY/WX    TMP DP  RH WIND       PRES   REMARKS
NORTH PLATTE   PTSUNNY   73  63  70 VRB3      29.77R
IMPERIAL       MOCLDY    67  63  87 CALM      29.79S
LEXINGTON      PTSUNNY   73  67  81 S7        29.76F
MCCOOK         CLOUDY    74  64  71 S9        29.77S
OGALLALA       CLOUDY    61  60  97 CALM      29.80R
$$

NEZ005>010-023>029-035>040-094-201400-
NORTH CENTRAL NEBRASKA

CITY           SKY/WX    TMP DP  RH WIND       PRES   REMARKS
VALENTINE      MOSUNNY   64  63  96 NE3       29.77R
AINSWORTH      MOSUNNY   66  65  98 NE6       29.77S FOG
BROKEN BOW     MOSUNNY   72  66  81 S3        29.76R
O`NEILL        CLOUDY    71  69  94 E6        29.78S
ORD            PTSUNNY   70  67  90 SE6       29.75R
THEDFORD       PTSUNNY   71  64  78 CALM      29.78S
$$

NEZ041-046>049-061>064-073>077-083>087-201400-
SOUTH CENTRAL NEBRASKA

CITY           SKY/WX    TMP DP  RH WIND       PRES   REMARKS
GRAND ISLAND   PTSUNNY   74  64  71 S12       29.77R
AURORA         PTSUNNY   74  67  79 S9        29.78R
HASTINGS       PTSUNNY   71  62  73 S9        29.79R
HEBRON         MOSUNNY   72  63  73 S6        29.81R
HOLDREGE       MOSUNNY   73  63  70 S10       29.78S
KEARNEY *      PTSUNNY   72  64  78 S14       29.77S
$$

NEZ011>018-030>034-042>045-201400-
NORTHEAST NEBRASKA

CITY           SKY/WX    TMP DP  RH WIND       PRES   REMARKS
NORFOLK        CLOUDY    70  66  87 SE12      29.80R
ALBION         CLOUDY    71  66  84 E5        29.79R
BLAIR          CLOUDY    72  67  86 NE8       29.82F
COLUMBUS *     CLOUDY    72  66  83 E6        29.82R
FREMONT        CLOUDY    73  68  83 E9        29.82S
TEKAMAH        CLOUDY    72  68  87 SE5       29.82R
WAYNE          CLOUDY    69  65  89 E15       29.79S
$$

NEZ050>053-065>068-078-088>093-201400-
SOUTHEAST NEBRASKA

CITY           SKY/WX    TMP DP  RH WIND       PRES   REMARKS
LINCOLN        PTSUNNY   77  66  68 S7        29.79R
OMAHA EPPLEY   CLOUDY    74  67  78 NE7       29.82R
BEATRICE       MOSUNNY   74  68  81 S7        29.82S
FALLS CITY     PTSUNNY   73  69  87 S5        29.82R
NEBRASKA CITY  CLOUDY    74  68  81 SW6       29.81S
PLATTSMOUTH    CLOUDY    74  68  80 S10       29.80F
$$

NEZ044-045-051>053-067-201400-
OMAHA AREA

CITY           SKY/WX    TMP DP  RH WIND       PRES   REMARKS
OMAHA EPPLEY   CLOUDY    74  67  78 NE7       29.82R
BLAIR          CLOUDY    72  67  86 NE8       29.82F
FREMONT        CLOUDY    73  68  83 E9        29.82S
MILLARD        CLOUDY    76  70  81 N3        29.82R
OFFUTT AFB     CLOUDY    74  74 100 N10       29.82R
PLATTSMOUTH    CLOUDY    74  68  80 S10       29.80F
WAHOO          FAIR      73  68  83 NE7       29.82R
$$



USA.gov is the U.S. government's official web portal to all federal, state and local government web resources and services.